Regional Weather Roundup
Issued by NWS

Home | Current Version | Previous Version | Text Only | Print | Product List | Glossary Off
Versions: 1 2 3 4 5 6 7 8 9 10 11 12 13 14 15 16 17 18 19 20 21 22 23 24 25 26 27 28 29 30 31 32 33 34 35 36 37 38 39 40 41 42 43 44 45 46 47 48 49 50

000
ASUS43 KLMK 050202
RWRKY
KENTUCKY REGIONAL WEATHER ROUNDUP
NATIONAL WEATHER SERVICE LOUISVILLE KY
1000 PM EDT FRI SEP 04 2015

NOTE "FAIR" INDICATES FEW OR NO CLOUDS BELOW 12,000 FEET
WITH NO SIGNIFICANT WEATHER AND/OR OBSTRUCTIONS TO VISIBILITY.

KYZ001>023-026-027-061>063-070>075-050300-
WESTERN AND SOUTH CENTRAL KENTUCKY

CITY           SKY/WX    TMP DP  RH WIND       PRES   REMARKS
PADUCAH        CLEAR     74  70  87 SW3       30.01R
HENDERSON      CLEAR     75  68  78 CALM      30.02R
OWENSBORO      CLEAR     82  70  67 CALM      30.04R
HOPKINSVILLE   CLEAR     79  69  69 N2        30.03R
BOWLING GREEN  CLEAR     77  65  66 CALM      30.04R
GLASGOW        CLEAR     74  67  78 CALM      30.06R
$$

KYZ024-025-028>034-038-045-046-053-050300-
NORTH CENTRAL KENTUCKY

CITY           SKY/WX    TMP DP  RH WIND       PRES   REMARKS
LOUISVILLE/SDF MOCLDY    86  65  49 NE9       30.06R
LOUISVILLE/LOU CLEAR     85  66  53 NE5       30.07R
FORT KNOX      CLEAR     73  68  84 N3        30.05R
$$

KYZ035>037-039>044-047>052-055>060-089>105-050300-
NORTHEAST KENTUCKY

CITY           SKY/WX    TMP DP  RH WIND       PRES   REMARKS
LEXINGTON      MOCLDY    81  65  58 CALM      30.09R
COVINGTON      LGT RAIN  70  65  84 SE6       30.11F
FRANKFORT      MOCLDY    79  66  64 N14G26    30.11R
$$

KYZ054-064>069-076>088-106>120-050300-
SOUTHEAST KENTUCKY

CITY           SKY/WX    TMP DP  RH WIND       PRES   REMARKS
JACKSON        CLEAR     76  66  71 CALM      30.11R
LONDON         CLEAR     79  64  60 E3        30.09R
SOMERSET       NOT AVBL
MIDDLESBORO    MOCLDY    73  67  82 CALM      30.11R
MONTICELLO     CLEAR     70  70 100 CALM      30.11R
$$



USA.gov is the U.S. government's official web portal to all federal, state and local government web resources and services.